W2CS Weather Reports


time (UTC)temp
F
wind
direction
speed
knots
gust
knots
rain 1hr
in
rain 24hr
in
rain mn
in
humidity
%
barometer
mb
20200531072458 61 302 0.0 1.7 0.00 0.00 0.00 77 1013.0
20200531071451 61 290 0.0 1.7 0.00 0.00 0.00 78 1013.0
20200531070501 61 302 0.0 1.7 0.00 0.00 0.00 76 1013.0
20200531065505 61 301 0.0 1.7 0.00 0.00 0.00 77 1012.9
20200531064445 61 271 0.0 1.7 0.00 0.00 0.00 79 1012.9
20200531063501 61 284 0.0 1.7 0.00 0.00 0.00 77 1012.6
20200531062436 61 275 0.0 0.9 0.00 0.00 0.00 79 1012.5
20200531061426 61 287 0.0 0.0 0.00 0.00 0.00 81 1012.5
20200531060434 61 287 0.0 0.9 0.00 0.00 0.00 81 1012.4
20200531055431 61 282 0.0 0.9 0.00 0.00 0.00 80 1012.4
20200531054440 61 272 0.0 0.9 0.00 0.00 0.00 80 1012.4
20200531053421 62 267 0.0 1.7 0.00 0.00 0.00 79 1012.2
20200531052419 62 282 0.0 1.7 0.00 0.00 0.00 80 1012.4
20200531051358 62 281 0.0 0.9 0.00 0.00 0.00 81 1012.4
20200531050330 61 309 0.0 0.9 0.00 0.00 0.00 82 1012.4
20200531045336 61 292 0.0 0.9 0.00 0.00 0.00 85 1012.4
20200531044349 60 268 0.0 0.9 0.00 0.00 0.00 87 1012.5
20200531043343 60 286 0.0 0.9 0.00 0.00 0.00 90 1012.5
20200531042343 59 269 0.0 0.9 0.00 0.00 0.00 93 1012.6
20200531041315 58 233 0.0 0.9 0.00 0.00 0.00 95 1012.6
20200531040247 58 232 0.0 0.9 0.00 0.00 0.00 96 1012.6
20200531035218 57 91 0.0 0.0 0.00 0.00 0.00 95 1012.4
20200531034219 57 92 0.0 0.0 0.00 0.00 0.00 95 1012.4
20200531033218 57 92 0.0 0.0 0.00 0.00 0.00 95 1012.4
20200531032212 58 92 0.0 0.0 0.00 0.00 0.00 94 1012.4
20200531031207 58 92 0.0 0.0 0.00 0.00 0.00 94 1012.4
20200531030204 58 92 0.0 0.0 0.00 0.00 0.00 94 1012.4
20200531025225 59 92 0.0 0.0 0.00 0.00 0.00 94 1012.3
20200531024227 59 92 0.0 0.0 0.00 0.00 0.00 94 1012.4
20200531023155 59 92 0.0 0.0 0.00 0.00 0.00 94 1012.4
20200531022149 60 92 0.0 0.0 0.00 0.00 0.00 94 1012.5
20200531021159 60 92 0.0 0.0 0.00 0.00 0.00 94 1012.6
20200531020148 60 91 0.0 0.0 0.00 0.00 0.00 93 1012.6
20200531015158 60 91 0.0 0.0 0.00 0.00 0.00 93 1012.5
20200531014219 60 92 0.0 0.0 0.00 0.00 0.00 93 1012.4
20200531013145 60 91 0.0 0.0 0.00 0.00 0.00 92 1012.4
20200531012146 60 91 0.0 0.0 0.00 0.00 0.00 93 1012.4
20200531011132 61 91 0.0 0.0 0.00 0.00 0.00 92 1012.4
20200531010110 61 91 0.0 0.0 0.00 0.00 0.00 92 1012.4
20200531005058 62 91 0.0 0.0 0.00 0.00 0.00 92 1012.4
20200531004047 62 91 0.0 0.0 0.00 0.00 0.00 91 1012.4
20200531003044 63 91 0.0 0.0 0.00 0.00 0.00 90 1012.4
20200531002028 63 92 0.0 0.0 0.00 0.00 0.00 89 1012.3
20200531001024 64 92 0.0 0.0 0.00 0.00 0.00 87 1012.3
20200531000001 65 91 0.0 0.0 0.00 0.00 0.00 86 1012.3
20200530234956 66 91 0.0 0.0 0.00 0.00 0.00 86 1012.1
20200530233949 66 91 0.0 0.0 0.00 0.01 0.00 85 1012.0
20200530232944 67 91 0.0 0.0 0.00 0.01 0.00 81 1012.0
20200530231912 68 91 0.0 0.0 0.00 0.01 0.00 80 1011.9
20200530230931 68 91 0.0 0.0 0.00 0.01 0.00 80 1011.8
20200530225916 69 91 0.0 0.0 0.00 0.01 0.00 79 1011.8
20200530224923 70 91 0.0 0.0 0.00 0.01 0.00 79 1011.7
20200530223858 70 91 0.0 0.0 0.00 0.01 0.00 78 1011.5
20200530222919 71 91 0.0 0.0 0.00 0.01 0.00 74 1011.5
20200530221938 71 92 0.0 0.9 0.00 0.01 0.00 73 1011.4
20200530220945 72 318 0.0 3.5 0.00 0.01 0.00 74 1011.4
20200530215951 72 244 0.0 0.0 0.00 0.01 0.00 74 1011.4
20200530215005 72 281 0.0 1.7 0.00 0.01 0.00 74 1011.4
20200530214007 72 276 0.0 0.9 0.00 0.01 0.00 74 1011.4
20200530212934 72 292 0.0 0.9 0.00 0.01 0.00 76 1011.4
20200530211957 72 306 0.0 0.9 0.00 0.01 0.00 75 1011.4
20200530211013 73 305 0.0 0.9 0.00 0.01 0.00 75 1011.4
20200530210029 73 259 0.0 2.6 0.00 0.01 0.00 76 1011.4
20200530205041 74 259 0.0 2.6 0.00 0.01 0.00 75 1011.4
20200530204036 74 227 0.0 0.9 0.00 0.01 0.00 75 1011.4
20200530203008 75 221 0.0 1.7 0.00 0.01 0.00 75 1011.4
20200530201947 75 215 0.0 1.7 0.00 0.01 0.00 76 1011.5
20200530200922 74 173 0.0 0.9 0.00 0.01 0.00 78 1011.4
20200530195928 74 157 0.0 0.9 0.00 0.01 0.00 79 1011.4
20200530194926 74 158 0.0 0.0 0.00 0.01 0.00 79 1011.4
20200530193947 74 150 0.0 2.6 0.00 0.01 0.00 80 1011.4
20200530193000 74 192 0.0 0.9 0.00 0.01 0.00 78 1011.4
20200530192000 74 238 0.0 2.6 0.00 0.01 0.00 80 1011.5
20200530191014 74 146 0.0 1.7 0.00 0.01 0.00 81 1011.7
20200530190034 74 222 0.0 1.7 0.00 0.01 0.00 83 1011.7
20200530185032 74 101 0.0 1.7 0.00 0.01 0.00 81 1011.7
20200530184002 75 226 0.0 4.3 0.00 0.01 0.00 79 1011.5
20200530183019 76 188 0.0 4.3 0.00 0.01 0.00 77 1011.5
20200530182030 78 98 0.0 2.6 0.00 0.01 0.00 76 1011.4
20200530181001 79 248 0.0 1.7 0.00 0.01 0.00 81 1011.5
20200530175946 79 244 0.0 1.7 0.00 0.01 0.00 76 1011.5
20200530175001 80 240 0.0 1.7 0.00 0.01 0.00 75 1011.5
20200530174013 80 219 0.0 1.7 0.00 0.01 0.00 77 1011.7
20200530172947 80 190 0.0 1.7 0.00 0.01 0.00 76 1011.7
20200530171947 80 327 0.0 1.7 0.00 0.01 0.00 79 1011.7
20200530170919 79 284 0.0 3.5 0.00 0.01 0.00 78 1011.8
20200530165858 78 205 0.9 3.5 0.00 0.01 0.00 84 1012.0
20200530164829 78 270 0.0 2.6 0.00 0.01 0.00 82 1012.0
20200530163851 78 148 0.0 0.0 0.00 0.01 0.00 81 1011.9
20200530162833 78 232 0.0 1.7 0.00 0.01 0.00 79 1012.3
20200530161842 77 223 0.0 2.6 0.00 0.01 0.00 83 1012.3
20200530160854 77 99 0.0 2.6 0.00 0.01 0.00 81 1012.4
20200530155856 76 265 0.0 1.7 0.00 0.01 0.00 82 1012.5
20200530154912 76 330 0.0 2.6 0.00 0.01 0.00 80 1012.5
20200530153848 76 190 0.0 2.6 0.00 0.01 0.00 85 1012.8
20200530152906 75 244 0.0 1.7 0.00 0.01 0.00 86 1012.8
20200530151901 76 238 0.0 1.7 0.00 0.01 0.00 85 1012.8
20200530150841 75 305 0.0 0.0 0.00 0.01 0.00 84 1012.7
20200530145903 74 198 0.0 1.7 0.00 0.01 0.00 88 1012.8
20200530144839 73 189 0.0 1.7 0.00 0.01 0.00 89 1012.8
20200530143820 72 165 0.0 0.9 0.00 0.01 0.00 93 1013.0
20200530142759 70 195 0.0 0.0 0.00 0.02 0.00 93 1013.0
20200530141817 70 272 0.0 0.9 0.00 0.03 0.00 94 1013.0
20200530140824 69 125 0.0 0.9 0.00 0.04 0.00 96 1013.0
20200530135837 67 125 0.0 1.7 0.00 0.04 0.00 97 1013.0
20200530134844 66 95 0.0 1.7 0.00 0.04 0.00 97 1013.0
20200530133846 66 136 0.0 1.7 0.00 0.04 0.00 97 1013.0
20200530132819 66 134 0.0 0.0 0.00 0.04 0.00 98 1013.2
20200530131801 65 138 0.0 0.0 0.00 0.04 0.00 99 1013.2
20200530130759 64 138 0.0 0.9 0.00 0.04 0.00 98 1013.2
20200530125806 64 170 0.0 0.0 0.00 0.04 0.00 98 1013.2
20200530124801 62 169 0.0 0.0 0.00 0.04 0.00 98 1013.2
20200530123818 62 142 0.0 0.9 0.00 0.04 0.00 98 1013.4
20200530122752 62 142 0.0 0.0 0.00 0.04 0.00 98 1013.3
20200530121800 61 132 0.0 0.0 0.00 0.04 0.00 98 1013.3
20200530120737 61 86 0.0 0.0 0.00 0.04 0.00 98 1013.2
20200530115747 61 98 0.0 0.0 0.00 0.04 0.00 98 1013.1
20200530114750 61 99 0.0 0.9 0.00 0.04 0.00 98 1013.1
20200530113759 61 64 0.0 0.0 0.00 0.04 0.00 98 1013.0
20200530112735 61 281 0.0 0.0 0.00 0.04 0.00 98 1013.0
20200530111738 62 281 0.0 0.0 0.00 0.04 0.00 98 1013.0
20200530110755 62 281 0.0 0.9 0.00 0.04 0.00 98 1012.9
20200530105803 61 281 0.0 0.0 0.00 0.04 0.00 98 1012.9
20200530104758 61 281 0.0 0.0 0.00 0.04 0.00 99 1012.9
20200530103731 61 281 0.0 0.0 0.00 0.04 0.00 98 1012.8
20200530102751 61 281 0.0 0.0 0.00 0.04 0.00 98 1012.6
20200530101728 61 281 0.0 0.0 0.00 0.04 0.00 98 1012.6
20200530100743 61 281 0.0 0.0 0.00 0.04 0.00 98 1012.6
20200530095738 61 280 0.0 0.0 0.00 0.04 0.00 98 1012.5
20200530094737 61 281 0.0 0.0 0.00 0.04 0.00 98 1012.5
20200530093755 61 281 0.0 0.0 0.00 0.04 0.00 98 1012.5
20200530092747 61 281 0.0 0.0 0.00 0.04 0.00 98 1013.0
20200530091814 61 281 0.0 0.9 0.00 0.04 0.00 98 1013.0
20200530090750 61 321 0.0 1.7 0.00 0.04 0.00 98 1013.0
20200530085734 62 271 0.0 2.6 0.00 0.04 0.00 98 1013.5
20200530084711 62 270 0.0 2.6 0.00 0.04 0.00 98 1013.5
20200530083657 62 312 0.0 2.6 0.00 0.04 0.00 98 1013.2
20200530082719 62 83 0.0 0.9 0.00 0.04 0.00 98 1013.0
20200530081709 62 339 0.0 0.0 0.00 0.04 0.00 98 1013.0
20200530080643 62 0 0.0 0.9 0.00 0.04 0.00 98 1013.3
20200530075609 62 232 0.0 0.0 0.00 0.05 0.00 98 1013.5
20200530074632 62 271 0.0 0.0 0.00 0.05 0.00 98 1013.5
20200530073647 62 15 0.0 0.0 0.00 0.05 0.00 98 1013.8